Date String (YYYY-MM-DD hh:mm:ss) UTC,Instrument flags,Ambient pressure (hPa),Sample flow (lpm),Bypass flow (lpm),Sample temperature (°C),Ambient temperature (°C),ASC tube jacket temperature (°C),LED temperature (°C),Box temperature (°C),Sample RH (%),Span deviation,Mass concentration (μg/m³),Mass concentration (μg/m³),Mass concentration (μg/m³)
DateTimeUTC,F1_M11,P_M11,Q1_M11,Q2_M11,T1_M11,T2_M11,T3_M11,T4_M11,T5_M11,U1_M11,ZSPAN_M11,X0_M11,X2_M11,X1_M11
2021-12-09 03:00:00,,0811.3,4.99,0.00,22.7,21.8,00.0,31.8,24.4,14.3,0000.0,0000.72,0000.36,0000.16
2021-12-09 03:01:00,,0811.4,4.98,0.00,22.7,21.8,00.0,31.8,24.4,14.3,0000.0,0000.74,0000.36,0000.16
2021-12-09 03:02:00,,0811.5,5.01,0.00,22.7,21.8,00.0,31.7,24.3,14.3,0000.0,0000.74,0000.36,0000.15
2021-12-09 03:03:00,,0811.5,4.99,0.00,22.6,21.8,00.0,31.7,24.2,14.2,0000.0,0000.80,0000.35,0000.15
2021-12-09 03:04:00,,0811.5,5.01,0.00,22.6,21.7,00.0,31.7,24.2,14.2,0000.0,0000.85,0000.36,0000.16
2021-12-09 03:05:00,,0811.6,5.00,0.00,22.6,21.7,00.0,31.7,24.2,14.3,0000.0,0000.88,0000.34,0000.16
2021-12-09 03:06:00,,0811.5,5.00,0.00,22.6,21.7,00.0,31.7,24.2,14.3,0000.0,0000.90,0000.35,0000.16
2021-12-09 03:07:00,,0811.5,5.01,0.00,22.6,21.7,00.0,31.7,24.2,14.3,0000.0,0000.90,0000.33,0000.16
2021-12-09 03:08:00,,0811.6,5.00,0.00,22.6,21.7,00.0,31.7,24.2,14.4,0000.0,0001.07,0000.38,0000.16
2021-12-09 03:09:00,,0811.6,5.00,0.00,22.6,21.7,00.0,31.7,24.2,14.4,0000.0,0001.07,0000.39,0000.16
2021-12-09 03:10:00,,0811.6,5.01,0.00,22.6,21.7,00.0,31.7,24.2,14.4,0000.0,0001.07,0000.38,0000.16
2021-12-09 03:11:00,,0811.5,5.00,0.00,22.6,21.7,00.0,31.7,24.2,14.5,0000.0,0001.06,0000.36,0000.16
2021-12-09 03:12:00,,0811.5,5.00,0.00,22.6,21.7,00.0,31.7,24.2,14.5,0000.0,0001.04,0000.35,0000.16
2021-12-09 03:13:00,,0811.5,5.01,0.00,22.6,21.8,00.0,31.7,24.3,14.4,0000.0,0000.99,0000.34,0000.16
2021-12-09 03:14:00,,0811.6,5.00,0.00,22.6,21.8,00.0,31.7,24.3,14.3,0000.0,0001.61,0000.32,0000.15
2021-12-09 03:15:00,,0811.6,4.99,0.00,22.6,21.8,00.0,31.7,24.3,14.3,0000.0,0001.56,0000.31,0000.15
2021-12-09 03:16:00,,0811.5,5.01,0.00,22.6,21.8,00.0,31.7,24.3,14.2,0000.0,0002.96,0000.31,0000.15
2021-12-09 03:17:00,,0811.5,5.00,0.00,22.7,21.9,00.0,31.7,24.3,14.2,0000.0,0004.31,0000.31,0000.14
2021-12-09 03:18:00,,0811.5,5.00,0.00,22.7,21.9,00.0,31.7,24.3,14.3,0000.0,0004.37,0000.32,0000.15
2021-12-09 03:19:00,,0811.4,5.00,0.00,22.7,21.8,00.0,31.7,24.3,14.2,0000.0,0004.25,0000.28,0000.15
2021-12-09 03:20:00,,0811.3,5.00,0.00,22.7,21.8,00.0,31.7,24.3,14.2,0000.0,0004.17,0000.26,0000.15
2021-12-09 03:21:00,,0811.3,5.01,0.00,22.7,21.8,00.0,31.7,24.4,14.2,0000.0,0004.16,0000.25,0000.14
2021-12-09 03:22:00,,0811.4,4.99,0.00,22.7,21.8,00.0,31.7,24.4,14.1,0000.0,0004.36,0000.28,0000.15
2021-12-09 03:23:00,,0811.3,5.01,0.00,22.7,21.8,00.0,31.7,24.4,14.2,0000.0,0004.49,0000.31,0000.15
2021-12-09 03:24:00,,0811.3,5.01,0.00,22.7,21.9,00.0,31.7,24.4,14.0,0000.0,0004.54,0000.33,0000.15
2021-12-09 03:25:00,,0811.3,4.98,0.00,22.7,21.9,00.0,31.7,24.4,14.1,0000.0,0003.92,0000.36,0000.16
2021-12-09 03:26:00,,0811.2,5.00,0.00,22.7,21.9,00.0,31.7,24.4,13.9,0000.0,0004.03,0000.37,0000.16
2021-12-09 03:27:00,,0811.2,5.00,0.00,22.7,21.9,00.0,31.7,24.4,13.5,0000.0,0002.48,0000.38,0000.16
2021-12-09 03:28:00,,0811.3,5.00,0.00,22.7,21.8,00.0,31.7,24.4,13.3,0000.0,0001.33,0000.40,0000.16
2021-12-09 03:29:00,,0811.3,5.01,0.00,22.7,21.8,00.0,31.7,24.3,13.3,0000.0,0001.25,0000.38,0000.16
2021-12-09 03:30:00,,0811.5,4.99,0.00,22.7,21.7,00.0,31.7,24.3,13.4,0000.0,0001.19,0000.38,0000.16
2021-12-09 03:31:00,,0811.6,4.99,0.00,22.7,21.7,00.0,31.7,24.3,13.7,0000.0,0001.18,0000.37,0000.15
2021-12-09 03:32:00,,0811.5,5.00,0.00,22.7,21.7,00.0,31.7,24.3,13.9,0000.0,0001.21,0000.38,0000.15
2021-12-09 03:33:00,,0811.6,4.98,0.00,22.7,21.7,00.0,31.7,24.3,14.1,0000.0,0001.01,0000.36,0000.15
2021-12-09 03:34:00,,0811.5,5.00,0.00,22.7,21.6,00.0,31.7,24.3,14.2,0000.0,0001.04,0000.35,0000.15
2021-12-09 03:35:00,,0811.5,5.00,0.00,22.7,21.7,00.0,31.7,24.3,14.2,0000.0,0001.11,0000.37,0000.15
2021-12-09 03:36:00,,0811.4,5.00,0.00,22.7,21.7,00.0,31.7,24.4,14.3,0000.0,0001.03,0000.35,0000.15
2021-12-09 03:37:00,,0811.4,5.00,0.00,22.7,21.7,00.0,31.7,24.4,14.4,0000.0,0001.02,0000.38,0000.14
2021-12-09 03:38:00,,0811.4,5.00,0.00,22.7,21.8,00.0,31.7,24.4,14.5,0000.0,0000.98,0000.37,0000.14
2021-12-09 03:39:00,,0811.5,5.00,0.00,22.6,21.8,00.0,31.7,24.4,14.5,0000.0,0000.94,0000.36,0000.14
2021-12-09 03:40:00,,0811.6,5.01,0.00,22.6,21.7,00.0,31.7,24.3,14.5,0000.0,0000.97,0000.38,0000.16
2021-12-09 03:41:00,,0811.6,5.00,0.00,22.6,21.7,00.0,31.7,24.2,14.5,0000.0,0000.96,0000.37,0000.16
2021-12-09 03:42:00,,0811.6,5.00,0.00,22.6,21.7,00.0,31.7,24.2,14.6,0000.0,0000.92,0000.36,0000.16
2021-12-09 03:43:00,,0811.6,5.00,0.00,22.6,21.6,00.0,31.7,24.2,14.6,0000.0,0000.88,0000.35,0000.16
2021-12-09 03:44:00,,0811.6,5.00,0.00,22.6,21.7,00.0,31.7,24.3,14.5,0000.0,0000.86,0000.35,0000.16
2021-12-09 03:45:00,,0811.5,5.01,0.00,22.6,21.7,00.0,31.7,24.3,14.4,0000.0,0000.72,0000.33,0000.16
2021-12-09 03:46:00,,0811.6,5.00,0.00,22.6,21.7,00.0,31.7,24.3,14.4,0000.0,0000.61,0000.31,0000.16
2021-12-09 03:47:00,,0811.6,4.99,0.00,22.6,21.7,00.0,31.6,24.2,14.5,0000.0,0000.58,0000.29,0000.15
2021-12-09 03:48:00,,0811.5,5.00,0.00,22.5,21.6,00.0,31.6,24.1,14.7,0000.0,0000.45,0000.25,0000.15
2021-12-09 03:49:00,,0811.4,5.01,0.00,22.5,21.6,00.0,31.6,24.1,14.8,0000.0,0000.47,0000.26,0000.16
2021-12-09 03:50:00,,0811.2,5.01,0.00,22.5,21.5,00.0,31.6,24.1,14.8,0000.0,0000.42,0000.25,0000.16
2021-12-09 03:51:00,,0811.1,5.01,0.00,22.5,21.5,00.0,31.6,24.1,14.8,0000.0,0000.42,0000.24,0000.15
2021-12-09 03:52:00,,0811.0,5.00,0.00,22.5,21.6,00.0,31.6,24.1,14.6,0000.0,0000.46,0000.25,0000.14
2021-12-09 03:53:00,,0811.0,4.98,0.00,22.4,21.6,00.0,31.6,24.0,14.6,0000.0,0000.52,0000.28,0000.15
2021-12-09 03:54:00,,0811.0,5.00,0.00,22.4,21.6,00.0,31.5,24.0,14.8,0000.0,0000.54,0000.29,0000.15
2021-12-09 03:55:00,,0811.0,4.99,0.00,22.4,21.6,00.0,31.5,24.1,14.8,0000.0,0000.50,0000.28,0000.15
2021-12-09 03:56:00,,0811.0,5.01,0.00,22.4,21.5,00.0,31.5,24.1,14.7,0000.0,0000.49,0000.28,0000.15
2021-12-09 03:57:00,,0811.0,4.99,0.00,22.4,21.5,00.0,31.5,24.1,14.0,0000.0,0000.53,0000.27,0000.16
2021-12-09 03:58:00,,0811.2,5.01,0.00,22.4,21.5,00.0,31.5,24.1,13.7,0000.0,0000.59,0000.28,0000.16
2021-12-09 03:59:00,,0811.2,5.00,0.00,22.4,21.5,00.0,31.5,24.1,14.1,0000.0,0000.83,0000.29,0000.16
